1494399600.55,1458,12.56,72604.8,0.07,-36.01,-45.53,0,*41
1494399601.78,1459,12.56,72604.0,0.09,-36.37,-45.27,0,*48
1494399603.03,1460,12.56,72604.5,0.11,-34.47,-43.55,0,*7D
1494399604.27,1461,12.56,72606.0,0.11,-34.65,-43.61,0,*7B
1494399605.48,1462,12.56,72602.3,0.13,-35.17,-44.27,0,*7B
1494399606.71,1463,12.56,72604.5,0.13,-36.55,-45.53,0,*7D
1494399607.96,1464,12.56,72604.5,0.11,-39.79,-49.33,0,*73
1494399609.17,1465,12.56,72600.5,0.11,-39.35,-48.55,0,*7B
1494399610.43,1466,12.56,72602.3,0.11,-38.23,-47.23,0,*70
1494399611.68,1467,12.56,72606.5,0.09,-39.79,-48.77,0,*48
1494399612.93,1468,12.56,72604.5,0.07,-40.29,-49.47,0,*40
1494399614.17,1469,12.56,72600.3,0.07,-38.79,-47.31,0,*44
1494399615.41,1470,12.56,72604.0,0.05,-37.93,-46.07,0,*41
1494399616.65,1471,12.56,72604.8,0.05,-38.49,-46.89,0,*4E
1494399617.88,1472,12.56,72606.0,0.05,-38.91,-47.37,0,*4C
1494399619.11,1473,12.56,72600.3,0.01,-39.41,-47.79,0,*4F
1494399620.33,1474,12.5,72602.0,0.01,-39.41,-47.85,0,*4B
1494399621.57,1475,12.56,72602.8,0.01,-39.15,-47.45,0,*47
1494399622.75,1476,12.56,72600.8,0.01,-38.97,-46.97,0,*41
1494399623.96,1477,12.5,72598.0,0.01,-38.05,-46.15,0,*41
1494399625.14,1478,12.56,72600.5,0.01,-38.43,-46.35,0,*4E
1494399626.32,1479,12.56,72602.5,0.01,-37.03,-44.79,0,*4E
1494399627.5,1480,12.5,72598.0,0.05,-37.57,-45.41,0,*47
1494399628.7,1481,12.56,72596.8,0.05,-40.53,-48.77,0,*4A
1494399629.91,1482,12.56,72602.5,0.01,-40.35,-48.27,0,*48
1494399631.12,1483,12.56,72602.0,0.01,-39.15,-46.75,0,*4C
1494399632.34,1484,12.56,72600.5,0.01,-39.79,-47.57,0,*40
1494399633.56,1485,12.56,72602.0,-0.01,-40.15,-47.99,0,*6A
1494399634.81,1486,12.5,72598.0,-0.01,-38.55,-46.15,0,*67
1494399636.02,1487,12.56,72602.5,-0.01,-37.27,-44.99,0,*6A
1494399637.24,1488,12.56,72602.5,0.01,-36.91,-44.47,0,*47
1494399638.48,1489,12.56,72602.8,0.05,-36.61,-44.21,0,*4D
1494399639.68,1490,12.56,72600.3,0.05,-39.29,-47.51,0,*42
1494399640.88,1491,12.56,72600.3,0.01,-40.97,-48.97,0,*49
1494399642.11,1492,12.56,72600.0,0.01,-40.41,-48.77,0,*4F
1494399643.35,1493,12.56,72598.8,-0.01,-40.21,-47.85,0,*67
1494399644.54,1494,12.56,72598.5,-0.03,-41.87,-49.75,0,*6E
1494399645.76,1495,12.56,72598.5,-0.07,-43.09,-51.05,0,*61
1494399646.97,1496,12.56,72600.8,-0.07,-41.41,-49.11,0,*60
1494399648.25,1497,12.56,72600.8,-0.09,-42.95,-50.53,0,*6B
1494399649.46,1498,12.56,72602.0,-0.11,-40.79,-47.99,0,*5D
1494399650.67,1499,12.56,72596.8,-0.11,-40.79,-47.85,0,*51
1494399651.91,1500,12.56,72598.3,-0.09,-40.29,-47.17,0,*67
1494399653.12,1501,12.56,72598.0,-0.11,-40.29,-47.17,0,*5F
1494399654.37,1502,12.56,72596.5,-0.11,-41.55,-48.69,0,*50
1494399655.6,1503,12.56,72600.0,-0.11,-40.79,-47.79,0,*50
1494399656.85,1504,12.56,72600.5,-0.13,-39.03,-45.67,0,*5B
1494399658.1,1505,12.56,72600.3,-0.13,-38.61,-45.27,0,*5B
1494399659.29,1506,12.56,72596.5,-0.07,-38.55,-45.13,0,*6D
1494399660.54,1507,12.56,72598.3,-0.09,-37.81,-44.27,0,*62
1494399661.75,1508,12.56,72602.0,-0.07,-37.57,-44.01,0,*6C
1494399663.01,1509,12.56,72598.5,-0.05,-37.69,-44.13,0,*61
1494399664.25,1510,12.56,72600.0,-0.03,-39.03,-45.81,0,*67
1494399665.47,1511,12.56,72600.3,-0.01,-37.87,-44.53,0,*68
1494399666.71,1512,12.56,72600.5,-0.01,-39.35,-46.07,0,*6F
1494399667.92,1513,12.56,72602.0,-0.01,-38.17,-44.79,0,*64
1494399669.14,1514,12.56,72600.0,-0.01,-37.03,-43.61,0,*67
1494399670.32,1515,12.56,72600.5,0.05,-37.33,-44.41,0,*49
1494399671.5,1516,12.56,72600.5,0.01,-37.03,-43.95,0,*43
1494399672.69,1517,12.56,72602.3,0.09,-36.73,-43.41,0,*45
1494399673.89,1518,12.56,72602.5,0.09,-37.75,-44.73,0,*4B
1494399675.16,1519,12.56,72602.0,0.11,-39.03,-46.15,0,*7E
1494399676.39,1520,12.56,72600.3,0.09,-39.23,-46.61,0,*4C
1494399677.6,1521,12.56,72602.8,0.09,-40.59,-48.07,0,*40
1494399678.82,1522,12.56,72604.5,0.07,-42.25,-49.97,0,*4C
1494399680.02,1523,12.56,72600.5,0.01,-41.99,-49.53,0,*47
1494399681.21,1524,12.56,72600.5,0.01,-42.75,-50.67,0,*4E
1494399682.44,1525,12.56,72600.5,-0.03,-44.13,-51.99,0,*66
1494399683.69,1526,12.56,72600.5,-0.07,-43.67,-51.55,0,*65
1494399684.91,1527,12.56,72602.5,-0.11,-43.01,-50.53,0,*54
1494399686.12,1528,12.56,72602.3,-0.11,-41.55,-48.97,0,*59
1494399687.33,1529,12.56,72600.8,-0.15,-43.01,-50.75,0,*5A
1494399688.61,1530,12.56,72602.8,-0.17,-43.09,-50.61,0,*5D
1494399689.83,1531,12.5,72600.0,-0.21,-44.33,-52.07,0,*55
1494399691.03,1532,12.5,72602.0,-0.25,-43.61,-51.11,0,*56
1494399692.26,1533,12.56,72604.8,-0.27,-44.87,-52.35,0,*5F
1494399693.45,1534,12.5,72602.8,-0.29,-45.87,-53.39,0,*5A
1494399694.65,1535,12.5,72602.5,-0.33,-45.41,-52.79,0,*5F
1494399695.89,1536,12.56,72604.5,-0.37,-44.93,-52.13,0,*5A
1494399697.13,1537,12.5,72602.5,-0.43,-43.67,-50.47,0,*57
1494399698.41,1538,12.56,72604.5,-0.43,-41.67,-48.35,0,*56
1494399699.65,1539,12.56,72600.5,-0.43,-40.29,-46.83,0,*5F
1494399700.9,1540,12.56,72604.5,-0.43,-40.91,-47.23,0,*59
1494399702.17,1541,12.5,72600.3,-0.43,-42.83,-49.11,0,*56
1494399703.41,1542,12.56,72602.5,-0.43,-45.53,-52.29,0,*5E
1494399704.66,1543,12.56,72602.0,-0.47,-44.01,-50.39,0,*5E
1494399705.89,1544,12.5,72598.5,-0.49,-43.01,-49.39,0,*58
1494399707.14,1545,12.56,72600.5,-0.49,-42.95,-49.19,0,*57
1494399708.39,1546,12.5,72598.0,-0.49,-41.81,-48.27,0,*5E
1494399709.63,1547,12.5,72596.3,-0.49,-40.41,-46.55,0,*59
1494399710.85,1548,12.56,72602.3,-0.49,-39.53,-45.95,0,*54
1494399712.09,1549,12.5,72600.5,-0.47,-41.35,-47.99,0,*5A
1494399713.34,1550,12.5,72600.5,-0.47,-40.91,-47.37,0,*59
1494399714.61,1551,12.56,72602.5,-0.47,-40.29,-46.49,0,*53
1494399715.86,1552,12.5,72600.8,-0.47,-40.47,-46.49,0,*58
1494399717.1,1553,12.5,72602.0,-0.45,-40.29,-46.27,0,*5B
1494399718.29,1554,12.56,72600.0,-0.45,-38.97,-44.61,0,*56
1494399719.56,1555,12.5,72596.3,-0.39,-39.53,-45.07,0,*54
1494399720.81,1556,12.5,72598.3,-0.39,-40.41,-45.95,0,*51
1494399722.09,1557,12.5,72598.5,-0.39,-39.79,-45.47,0,*5A
1494399723.37,1558,12.5,72596.8,-0.35,-38.79,-44.21,0,*59
1494399724.61,1559,12.5,72600.5,-0.35,-39.53,-44.99,0,*52
1494399725.83,1560,12.56,72602.0,-0.31,-39.85,-45.41,0,*53
1494399727.03,1561,12.56,72602.0,-0.29,-38.61,-43.61,0,*54
1494399728.24,1562,12.5,72596.3,-0.29,-36.97,-41.99,0,*55
1494399729.43,1563,12.56,72600.5,-0.25,-37.45,-42.37,0,*51
1494399730.67,1564,12.56,72600.0,-0.23,-37.93,-42.89,0,*5E
1494399731.89,1565,12.5,72600.0,-0.21,-38.91,-44.07,0,*50
1494399733.13,1566,12.5,72600.0,-0.17,-39.23,-44.41,0,*5C
1494399734.38,1567,12.56,72602.8,-0.15,-39.97,-45.47,0,*57
1494399735.6,1568,12.56,72600.8,-0.13,-38.85,-44.27,0,*5B
1494399736.86,1569,12.56,72602.5,-0.13,-39.65,-45.27,0,*54
1494399738.08,1570,12.56,72604.5,-0.13,-39.65,-45.13,0,*5B
1494399739.31,1571,12.56,72600.0,-0.09,-40.15,-45.61,0,*6D
1494399740.56,1572,12.5,72602.0,-0.09,-39.71,-45.21,0,*66
1494399741.75,1573,12.56,72604.3,-0.07,-38.73,-44.07,0,*6F
1494399742.97,1574,12.5,72602.0,-0.07,-38.29,-43.49,0,*6A
1494399744.21,1575,12.5,72602.8,-0.05,-37.51,-42.63,0,*60
1494399745.43,1576,12.56,72602.0,-0.01,-37.87,-43.01,0,*69
1494399746.67,1577,12.56,72600.5,-0.01,-38.05,-42.95,0,*61
1494399747.9,1578,12.56,72604.0,0.01,-38.23,-43.21,0,*49
1494399749.11,1579,12.56,72606.3,0.01,-37.57,-42.69,0,*49
1494399750.32,1580,12.56,72604.5,0.05,-37.75,-42.95,0,*48
1494399751.53,1581,12.56,72600.8,0.07,-38.05,-43.49,0,*43
1494399752.76,1582,12.5,72600.0,0.11,-38.35,-43.81,0,*70
1494399753.99,1583,12.56,72604.5,0.13,-38.73,-44.67,0,*7E
1494399755.26,1584,12.5,72602.0,0.13,-36.91,-42.83,0,*77
1494399756.51,1585,12.5,72600.8,0.13,-37.21,-43.41,0,*73
1494399757.73,1586,12.56,72604.8,0.15,-37.39,-43.35,0,*7C
1494399758.94,1587,12.5,72602.0,0.15,-38.67,-44.61,0,*7F
1494399760.15,1588,12.56,72606.0,0.17,-40.53,-46.55,0,*7F
1494399761.36,1589,12.56,72604.3,0.15,-38.97,-44.73,0,*7D
1494399762.6,1590,12.56,72604.0,0.17,-37.93,-43.35,0,*79
1494399763.84,1591,12.56,72606.3,0.21,-38.11,-43.49,0,*73
1494399765.07,1592,12.56,72608.3,0.21,-39.03,-44.53,0,*7E
1494399766.31,1593,12.5,72606.3,0.23,-38.67,-44.21,0,*7B
1494399767.53,1594,12.56,72606.0,0.27,-37.75,-42.95,0,*7D
1494399768.77,1595,12.56,72608.0,0.29,-39.15,-44.61,0,*77
1494399769.96,1596,12.56,72606.8,0.27,-39.35,-44.41,0,*7A
1494399771.15,1597,12.56,72610.0,0.27,-40.47,-45.61,0,*73
1494399772.37,1598,12.56,72606.0,0.27,-41.35,-46.55,0,*7C
1494399773.58,1599,12.56,72606.8,0.23,-42.45,-47.65,0,*7F
1494399774.83,1600,12.56,72604.0,0.23,-42.95,-48.27,0,*78
1494399776.04,1601,12.56,72608.8,0.23,-42.63,-47.79,0,*74
1494399777.26,1602,12.56,72606.0,0.23,-42.45,-47.65,0,*7E
1494399778.47,1603,12.56,72606.5,0.21,-42.37,-47.31,0,*79
1494399779.72,1604,12.56,72608.8,0.19,-41.81,-46.49,0,*75
1494399780.96,1605,12.56,72608.5,0.21,-39.23,-43.49,0,*7D
1494399782.2,1606,12.56,72606.3,0.23,-39.53,-43.67,0,*77
1494399783.41,1607,12.56,72604.5,0.23,-40.59,-44.99,0,*74
1494399784.66,1608,12.56,72606.8,0.27,-40.09,-44.33,0,*7A
1494399785.92,1609,12.56,72606.8,0.29,-40.29,-44.21,0,*74
1494399787.14,1610,12.56,72604.0,0.31,-40.85,-44.67,0,*71
1494399788.36,1611,12.56,72606.3,0.31,-40.29,-43.95,0,*7C
1494399789.59,1612,12.56,72604.8,0.33,-40.41,-43.87,0,*70
1494399790.83,1613,12.56,72606.8,0.33,-41.41,-44.93,0,*72
1494399792.03,1614,12.56,72608.5,0.33,-41.99,-45.13,0,*79
1494399793.23,1615,12.56,72606.0,0.35,-41.99,-44.87,0,*72
1494399794.47,1616,12.56,72606.3,0.37,-42.25,-45.27,0,*7C
1494399795.69,1617,12.56,72606.8,0.35,-43.15,-46.07,0,*7C
1494399796.87,1618,12.56,72604.5,0.35,-45.95,-49.25,0,*72
1494399798.11,1619,12.56,72604.5,0.33,-44.93,-47.99,0,*7B
1494399799.33,1620,12.56,72604.5,0.31,-43.29,-46.01,0,*75
1494399800.54,1621,12.56,72604.8,0.35,-41.81,-44.61,0,*74
1494399801.76,1622,12.56,72604.5,0.35,-42.37,-45.47,0,*7C
1494399802.97,1623,12.56,72606.5,0.35,-41.55,-44.07,0,*7F
1494399804.17,1624,12.56,72606.8,0.39,-43.01,-45.95,0,*7D
1494399805.35,1625,12.56,72604.0,0.39,-43.15,-45.87,0,*7A
1494399806.56,1626,12.56,72602.0,0.39,-43.21,-45.87,0,*7E
1494399807.77,1627,12.56,72606.5,0.39,-41.17,-44.13,0,*74
1494399808.95,1628,12.56,72604.0,0.39,-40.53,-43.15,0,*7B
1494399810.15,1629,12.56,72600.3,0.43,-40.47,-42.83,0,*7C
1494399811.36,1630,12.56,72606.0,0.43,-40.41,-42.89,0,*78
1494399812.63,1631,12.56,72606.3,0.47,-39.59,-42.05,0,*7E
1494399813.89,1632,12.56,72604.3,0.47,-39.41,-42.57,0,*73
1494399815.11,1633,12.56,72606.3,0.51,-40.15,-44.61,0,*79
1494399816.32,1634,12.56,72602.8,0.53,-37.27,-42.95,0,*70
1494399817.51,1635,12.5,72602.8,0.53,-35.47,-41.73,0,*7E
1494399818.71,1636,12.56,72602.3,0.57,-34.95,-41.61,0,*74
1494399819.95,1637,12.56,72604.0,0.57,-36.37,-43.67,0,*7B
1494399821.19,1638,12.5,72602.8,0.55,-34.35,-41.11,0,*75
1494399822.45,1639,12.56,72604.0,0.55,-33.77,-41.23,0,*74
1494399823.63,1640,12.56,72606.0,0.57,-32.35,-39.91,0,*79
1494399824.83,1641,12.56,72604.0,0.57,-31.85,-38.73,0,*7D
1494399826.02,1642,12.5,72600.3,0.57,-32.39,-38.85,0,*73
1494399827.25,1643,12.56,72604.5,0.57,-31.61,-37.69,0,*71
1494399828.51,1644,12.5,72602.8,0.59,-32.79,-38.67,0,*73
1494399829.77,1645,12.56,72604.8,0.59,-32.97,-38.23,0,*72
1494399831.01,1646,12.5,72606.0,0.61,-33.73,-39.15,0,*75
1494399832.21,1647,12.56,72604.8,0.59,-36.19,-41.99,0,*7D
1494399833.44,1648,12.5,72604.5,0.59,-36.55,-42.45,0,*78
1494399834.66,1649,12.56,72608.0,0.59,-37.27,-43.61,0,*7A
1494399835.89,1650,12.56,72606.3,0.55,-37.15,-43.67,0,*79
1494399837.16,1651,12.56,72606.3,0.55,-41.67,-49.11,0,*77
1494399838.41,1652,12.5,72606.3,0.51,-39.59,-46.97,0,*73
1494399839.67,1653,12.56,72604.5,0.51,-39.29,-46.89,0,*7A
1494399840.86,1654,12.56,72606.0,0.45,-38.61,-46.83,0,*7F
1494399842.1,1655,12.5,72606.3,0.45,-39.23,-47.93,0,*79
1494399843.32,1656,12.56,72608.5,0.45,-38.61,-47.37,0,*73
1494399844.5,1657,12.5,72604.0,0.43,-38.73,-47.31,0,*71
1494399845.74,1658,12.5,72606.3,0.41,-39.85,-48.13,0,*7B
1494399846.95,1659,12.56,72608.0,0.41,-40.47,-48.55,0,*78
1494399848.21,1660,12.56,72608.0,0.37,-40.59,-48.77,0,*7C
1494399849.46,1661,12.56,72608.5,0.37,-41.55,-49.61,0,*76
1494399850.68,1662,12.5,72602.0,0.35,-42.25,-50.33,0,*7C
1494399851.9,1663,12.5,72604.8,0.31,-43.29,-51.05,0,*70
1494399853.14,1664,12.56,72606.5,0.29,-42.31,-49.81,0,*73
1494399854.38,1665,12.5,72600.3,0.29,-42.75,-50.03,0,*70
1494399855.61,1666,12.56,72606.0,0.23,-44.99,-52.43,0,*7B
1494399856.85,1667,12.5,72606.3,0.17,-44.01,-51.11,0,*78
1494399858.07,1668,12.56,72606.8,0.15,-44.01,-50.75,0,*76
1494399859.28,1669,12.5,72602.8,0.15,-45.41,-52.21,0,*71
1494399860.52,1670,12.56,72604.3,0.11,-45.67,-51.91,0,*71
1494399861.75,1671,12.56,72604.3,0.07,-46.69,-53.09,0,*49
1494399862.96,1672,12.56,72606.3,0.01,-47.79,-53.99,0,*45
1494399864.2,1673,12.5,72604.0,-0.03,-48.77,-55.05,0,*69
1494399865.39,1674,12.5,72600.8,-0.07,-50.89,-57.07,0,*62
1494399866.59,1675,12.5,72600.0,-0.15,-51.19,-57.37,0,*5B
1494399867.83,1676,12.5,72602.3,-0.21,-51.99,-57.77,0,*53
1494399869.05,1677,12.5,72602.8,-0.27,-48.07,-53.39,0,*55
1494399870.28,1678,12.5,72598.5,-0.29,-48.83,-53.83,0,*59
1494399871.5,1679,12.56,72600.8,-0.33,-48.49,-53.53,0,*58
1494399872.78,1680,12.5,72600.3,-0.35,-50.33,-55.51,0,*58
1494399874.03,1681,12.5,72602.3,-0.43,-48.97,-53.31,0,*5F
1494399875.28,1682,12.5,72600.5,-0.45,-48.69,-52.93,0,*52
1494399876.55,1683,12.5,72600.0,-0.47,-49.11,-53.23,0,*55
1494399877.77,1684,12.56,72600.0,-0.51,-48.97,-53.01,0,*5A
1494399879.04,1685,12.56,72606.3,-0.55,-49.19,-53.53,0,*5F
1494399880.29,1686,12.56,72604.0,-0.57,-49.39,-53.45,0,*5B
1494399881.54,1687,12.56,72602.3,-0.59,-50.67,-55.05,0,*55
1494399882.75,1688,12.5,72602.8,-0.61,-45.73,-49.67,0,*59
1494399883.97,1689,12.5,72598.5,-0.61,-44.01,-48.07,0,*5B
1494399885.2,1690,12.56,72602.5,-0.61,-44.79,-48.77,0,*5B
1494399886.49,1691,12.5,72602.3,-0.59,-42.95,-46.49,0,*56
1494399887.68,1692,12.5,72596.3,-0.57,-44.61,-48.41,0,*50
1494399888.89,1693,12.5,72598.3,-0.57,-44.79,-48.41,0,*58
1494399890.11,1694,12.5,72602.3,-0.57,-44.73,-48.21,0,*53
1494399891.33,1695,12.5,72602.8,-0.53,-41.99,-44.93,0,*52
1494399892.58,1696,12.5,72602.3,-0.51,-41.93,-45.13,0,*50
1494399893.84,1697,12.56,72600.5,-0.49,-42.95,-46.15,0,*58
1494399895.11,1698,12.56,72600.5,-0.47,-43.55,-46.69,0,*5F
1494399896.39,1699,12.5,72600.3,-0.47,-43.09,-46.07,0,*5F
1494399897.63,1700,12.5,72598.5,-0.43,-42.83,-45.61,0,*5A
1494399898.88,1701,12.56,72604.5,-0.39,-42.57,-45.33,0,*58
1494399900.13,1702,12.5,72602.0,-0.39,-43.49,-46.41,0,*53
1494399901.4,1703,12.5,72600.0,-0.35,-44.13,-46.89,0,*52
1494399902.65,1704,12.5,72600.5,-0.35,-42.31,-44.99,0,*50
1494399903.85,1705,12.56,72606.0,-0.33,-43.61,-46.55,0,*51
1494399905.08,1706,12.56,72606.0,-0.31,-43.49,-46.01,0,*5B
1494399906.33,1707,12.56,72602.5,-0.31,-44.47,-47.31,0,*51
1494399907.59,1708,12.5,72600.8,-0.33,-45.07,-47.79,0,*55
1494399908.84,1709,12.5,72600.0,-0.31,-43.75,-46.27,0,*5F
1494399910.09,1710,12.56,72604.8,-0.27,-43.29,-46.01,0,*5D
1494399911.34,1711,12.56,72606.5,-0.29,-43.29,-45.73,0,*54
1494399912.59,1712,12.56,72606.8,-0.27,-43.29,-46.21,0,*5D
1494399913.82,1713,12.56,72606.8,-0.25,-43.61,-46.27,0,*54
1494399915.02,1714,12.5,72600.3,-0.25,-43.95,-46.35,0,*5B
1494399916.25,1715,12.56,72606.8,-0.25,-43.09,-45.61,0,*5D
1494399917.44,1716,12.56,72606.5,-0.21,-42.89,-45.33,0,*54
1494399918.63,1717,12.5,72602.8,-0.21,-42.89,-45.21,0,*56
1494399919.89,1718,12.56,72604.5,-0.17,-43.09,-45.33,0,*56
1494399921.11,1719,12.5,72604.5,-0.15,-41.81,-44.27,0,*53
1494399922.36,1720,12.5,72606.0,-0.13,-41.81,-44.07,0,*5D
1494399923.61,1721,12.56,72608.5,-0.11,-41.81,-44.21,0,*5A
1494399924.82,1722,12.56,72606.8,-0.09,-44.41,-46.75,0,*6A
1494399926.04,1723,12.56,72606.0,-0.07,-41.61,-44.13,0,*60
1494399927.22,1724,12.56,72606.5,-0.07,-41.29,-43.75,0,*6C
1494399928.48,1725,12.56,72608.3,-0.05,-44.33,-47.03,0,*64
1494399929.72,1726,12.56,72606.0,-0.05,-44.13,-46.35,0,*61
1494399930.94,1727,12.56,72606.0,-0.05,-41.61,-44.07,0,*63
1494399932.17,1728,12.56,72606.5,-0.01,-40.59,-43.01,0,*63
1494399933.42,1729,12.56,72606.8,-0.01,-42.19,-44.79,0,*6C
1494399934.6,1730,12.5,72604.8,0.05,-41.73,-44.27,0,*49
1494399935.83,1731,12.5,72604.5,0.05,-41.55,-44.01,0,*48
1494399937.01,1732,12.5,72604.3,0.05,-41.41,-43.95,0,*44
1494399938.24,1733,12.5,72604.8,0.07,-41.61,-44.13,0,*4C
1494399939.48,1734,12.5,72606.3,0.11,-41.41,-43.81,0,*72
1494399940.71,1735,12.5,72606.0,0.13,-40.21,-42.75,0,*7C
1494399941.93,1736,12.56,72608.8,0.13,-42.51,-44.79,0,*70
1494399943.15,1737,12.56,72606.8,0.15,-44.93,-47.99,0,*72
1494399944.36,1738,12.5,72604.8,0.15,-44.33,-47.17,0,*71
1494399945.6,1739,12.5,72604.0,0.11,-43.41,-46.27,0,*74
1494399946.86,1740,12.56,72610.3,0.13,-43.41,-46.49,0,*70
1494399948.1,1741,12.56,72608.3,0.13,-43.81,-46.75,0,*72
1494399949.37,1742,12.56,72606.0,0.13,-44.21,-47.23,0,*7E
1494399950.62,1743,12.56,72604.8,0.11,-44.87,-47.79,0,*7E
1494399951.89,1744,12.56,72610.0,0.11,-46.15,-49.39,0,*7A
1494399953.15,1745,12.5,72606.3,0.07,-47.45,-50.83,0,*41
1494399954.41,1746,12.56,72606.5,0.07,-48.35,-51.55,0,*40
1494399955.59,1747,12.56,72604.5,0.01,-47.65,-50.75,0,*4E
1494399956.86,1748,12.56,72604.3,-0.01,-46.07,-48.77,0,*62
1494399958.09,1749,12.5,72606.3,-0.01,-42.57,-45.21,0,*6C
1494399959.37,1750,12.5,72604.5,-0.01,-43.55,-46.15,0,*63
1494399960.57,1751,12.56,72606.0,0.01,-44.61,-47.37,0,*4E
1494399961.79,1752,12.56,72604.3,0.05,-43.75,-46.49,0,*43
1494399963.0,1753,12.56,72608.3,0.05,-42.31,-44.99,0,*4C
1494399964.18,1754,12.56,72604.8,0.05,-41.87,-44.41,0,*40
1494399965.36,1755,12.56,72604.5,0.05,-41.87,-44.61,0,*43
1494399966.56,1756,12.56,72604.8,0.09,-40.03,-42.45,0,*41
1494399967.8,1757,12.56,72604.5,0.13,-39.97,-42.51,0,*7D
1494399969.01,1758,12.56,72606.5,0.13,-40.53,-43.01,0,*70
1494399970.23,1759,12.5,72606.3,0.17,-41.03,-43.49,0,*7D
1494399971.44,1760,12.56,72604.3,0.19,-41.61,-44.33,0,*77
1494399972.65,1761,12.56,72606.0,0.19,-41.99,-44.67,0,*70
1494399973.89,1762,12.56,72604.8,0.21,-41.87,-44.73,0,*72
1494399975.07,1763,12.5,72604.8,0.23,-41.73,-44.41,0,*7B
1494399976.29,1764,12.56,72606.3,0.27,-41.67,-44.41,0,*7D
1494399977.5,1765,12.56,72606.8,0.27,-41.49,-44.01,0,*74
1494399978.73,1766,12.56,72608.0,0.29,-41.11,-44.01,0,*74
1494399979.91,1767,12.5,72604.0,0.31,-41.99,-44.53,0,*7B
1494399981.13,1768,12.5,72604.5,0.31,-41.41,-44.13,0,*75
1494399982.33,1769,12.56,72608.3,0.33,-41.87,-44.53,0,*78
1494399983.55,1770,12.56,72608.8,0.35,-42.19,-44.79,0,*7A
1494399984.77,1771,12.5,72606.3,0.35,-42.19,-44.79,0,*7B
1494399985.98,1772,12.56,72606.3,0.35,-41.55,-44.07,0,*7A
1494399987.2,1773,12.56,72608.0,0.39,-42.19,-44.99,0,*7B
1494399988.43,1774,12.56,72608.3,0.37,-41.73,-44.21,0,*7E
1494399989.69,1775,12.56,72604.3,0.41,-42.45,-44.93,0,*71
1494399990.88,1776,12.56,72606.3,0.39,-44.53,-47.51,0,*71
1494399992.09,1777,12.5,72602.5,0.39,-43.35,-45.81,0,*78
1494399993.31,1778,12.56,72604.0,0.39,-43.41,-46.07,0,*79
1494399994.55,1779,12.56,72606.8,0.39,-44.13,-46.89,0,*7E
1494399995.79,1780,12.5,72602.5,0.37,-43.67,-46.21,0,*70
1494399997.02,1781,12.56,72608.0,0.37,-44.41,-47.03,0,*73
1494399998.26,1782,12.56,72604.8,0.39,-44.13,-46.69,0,*74
1494399999.47,1783,12.56,72602.0,0.37,-44.27,-46.75,0,*71
1494400000.66,1784,12.56,72602.5,0.35,-42.75,-45.13,0,*76
1494400001.89,1785,12.56,72602.3,0.37,-42.63,-45.07,0,*77
1494400003.11,1786,12.56,72600.8,0.39,-41.87,-44.33,0,*75
1494400004.32,1787,12.56,72602.0,0.39,-43.29,-45.61,0,*74
1494400005.53,1788,12.56,72600.8,0.41,-42.13,-44.53,0,*7C
1494400006.75,1789,12.56,72600.3,0.41,-41.99,-44.33,0,*7A
1494400007.93,1790,12.56,72602.0,0.43,-41.29,-43.75,0,*7E
1494400009.15,1791,12.56,72602.3,0.45,-41.23,-43.61,0,*76
1494400010.41,1792,12.56,72600.5,0.47,-40.59,-42.83,0,*76
1494400011.64,1793,12.56,72600.5,0.53,-40.97,-43.55,0,*7A
1494400012.87,1794,12.56,72600.3,0.53,-41.35,-43.81,0,*7D
1494400014.08,1795,12.56,72600.5,0.53,-42.37,-45.07,0,*75
1494400015.31,1796,12.56,72604.8,0.53,-41.35,-43.81,0,*7F
1494400016.54,1797,12.5,72600.8,0.55,-40.47,-42.69,0,*7B
1494400017.75,1798,12.5,72602.5,0.59,-40.35,-42.75,0,*70
1494400018.96,1799,12.56,72606.3,0.61,-42.19,-44.79,0,*7C
1494400020.16,1800,12.56,72602.8,0.59,-40.65,-43.01,0,*79
1494400021.35,1801,12.56,72604.3,0.61,-40.73,-43.41,0,*70
1494400022.55,1802,12.56,72602.5,0.63,-41.17,-43.75,0,*75
1494400023.74,1803,12.56,72604.8,0.65,-41.49,-43.95,0,*77
1494400024.99,1804,12.56,72604.5,0.63,-41.81,-44.47,0,*7A
1494400026.17,1805,12.5,72600.3,0.65,-41.29,-43.75,0,*79
1494400027.4,1806,12.56,72604.8,0.65,-42.05,-44.93,0,*78
1494400028.64,1807,12.56,72604.8,0.67,-41.23,-43.95,0,*7D
1494400029.82,1808,12.5,72602.8,0.69,-41.29,-43.95,0,*76
1494400031.01,1809,12.56,72604.5,0.69,-42.75,-45.61,0,*70
1494400032.23,1810,12.5,72606.0,0.67,-44.99,-48.21,0,*7B
1494400033.41,1811,12.56,72608.8,0.65,-44.41,-48.83,0,*75
1494400034.67,1812,12.56,72606.3,0.63,-41.55,-46.27,0,*70
1494400035.91,1813,12.5,72604.5,0.63,-43.01,-48.27,0,*7C
1494400037.12,1814,12.56,72606.8,0.63,-41.49,-46.75,0,*7C
1494400038.36,1815,12.56,72606.8,0.59,-41.99,-47.37,0,*7E
1494400039.57,1816,12.56,72608.0,0.61,-41.73,-47.37,0,*72
1494400040.8,1817,12.56,72610.8,0.59,-41.99,-47.45,0,*79
1494400042.06,1818,12.5,72606.3,0.59,-40.79,-46.15,0,*7D
1494400043.27,1819,12.56,72610.0,0.59,-41.73,-47.17,0,*74
1494400044.5,1820,12.56,72610.3,0.57,-42.83,-48.13,0,*77
1494400045.71,1821,12.56,72604.5,0.55,-42.25,-47.57,0,*77
1494400046.94,1822,12.5,72606.3,0.55,-42.05,-47.51,0,*70
1494400048.2,1823,12.5,72606.3,0.55,-41.81,-47.23,0,*7B
1494400049.44,1824,12.5,72606.8,0.51,-44.01,-49.97,0,*74
1494400050.69,1825,12.5,72604.0,0.47,-43.01,-48.69,0,*75
1494400051.9,1826,12.56,72606.8,0.45,-43.29,-48.83,0,*7A
1494400053.14,1827,12.56,72608.0,0.45,-43.21,-48.77,0,*78
1494400054.37,1828,12.56,72608.8,0.43,-44.13,-49.53,0,*70
1494400055.57,1829,12.56,72608.5,0.41,-44.27,-49.67,0,*73
1494400056.79,1830,12.5,72606.0,0.39,-44.01,-49.33,0,*71
1494400058.0,1831,12.56,72608.8,0.37,-43.15,-48.07,0,*7A
1494400059.22,1832,12.56,72604.3,0.37,-43.01,-47.85,0,*79
1494400060.44,1833,12.56,72606.0,0.35,-43.01,-47.71,0,*71
1494400061.68,1834,12.5,72606.5,0.35,-40.59,-45.07,0,*7B
1494400062.88,1835,12.5,72604.0,0.37,-41.17,-45.67,0,*75
1494400064.12,1836,12.56,72606.3,0.39,-41.93,-46.41,0,*73
1494400065.33,1837,12.56,72604.3,0.39,-40.97,-45.41,0,*74
1494400066.57,1838,12.56,72604.0,0.39,-40.85,-45.27,0,*78
1494400067.79,1839,12.56,72604.5,0.39,-41.49,-46.07,0,*79
1494400069.0,1840,12.56,72606.8,0.39,-40.97,-45.87,0,*7E
1494400070.21,1841,12.56,72606.8,0.41,-40.91,-45.95,0,*75
1494400071.42,1842,12.56,72608.8,0.43,-40.41,-44.79,0,*7A
1494400072.62,1843,12.56,72606.8,0.43,-39.47,-44.47,0,*7E
1494400073.83,1844,12.56,72604.3,0.43,-39.65,-44.73,0,*7E
1494400075.04,1845,12.56,72604.3,0.45,-40.21,-45.53,0,*74
1494400076.26,1846,12.56,72606.3,0.45,-40.59,-45.87,0,*71
1494400077.44,1847,12.56,72606.3,0.45,-41.17,-46.75,0,*75
1494400078.65,1848,12.56,72608.0,0.45,-41.17,-47.03,0,*7A
1494400079.86,1849,12.56,72608.0,0.43,-40.03,-46.07,0,*7C
1494400081.11,1850,12.56,72610.3,0.43,-40.09,-46.49,0,*74
1494400082.35,1851,12.56,72608.3,0.41,-39.91,-46.69,0,*7A
1494400083.55,1852,12.56,72606.3,0.43,-40.47,-47.71,0,*76
1494400084.78,1853,12.56,72608.8,0.41,-40.59,-47.99,0,*7C
1494400086.0,1854,12.5,72604.8,0.39,-40.09,-48.07,0,*79
1494400087.24,1855,12.56,72608.0,0.37,-39.53,-48.07,0,*77
1494400088.5,1856,12.56,72606.5,0.37,-39.41,-48.35,0,*76
1494400089.77,1857,12.5,72606.0,0.33,-39.15,-48.77,0,*74
1494400090.99,1858,12.5,72606.5,0.31,-40.03,-50.61,0,*7E
1494400092.22,1859,12.5,72606.3,0.29,-40.29,-51.41,0,*7D
1494400093.42,1860,12.56,72610.5,0.23,-39.35,-50.97,0,*74
1494400094.63,1861,12.5,72606.0,0.19,-38.67,-50.89,0,*75
1494400095.82,1862,12.5,72604.0,0.15,-37.75,-50.47,0,*74
1494400097.01,1863,12.56,72614.3,0.15,-37.33,-50.67,0,*75
1494400098.22,1864,12.56,72610.5,0.11,-36.85,-50.75,0,*79
1494400099.43,1865,12.5,72610.3,0.09,-36.31,-50.53,0,*4A
1494400100.62,1866,12.56,72608.8,0.01,-36.67,-51.05,0,*40
1494400101.85,1867,12.5,72610.5,-0.01,-36.07,-50.25,0,*69
1494400103.06,1868,12.56,72610.5,-0.03,-35.41,-49.05,0,*6F
1494400104.31,1869,12.56,72610.0,-0.09,-34.59,-48.27,0,*6D
1494400105.5,1870,12.56,72610.0,-0.11,-34.41,-47.99,0,*5F